STARLINK-35887, 66959

Orbit data source: Space-Track

STARLINK-35887, 66959 is a payload satellite owned by SpaceX/Seattle (US) in LEO that was launched on Mon, 08 Dec 2025 UTC via an FALCON 9 launch vehicle from the Air Force Eastern Test Range (AFETR). Payload-class satellites include a variety of spacecraft equipped with specific instruments for various scientific and technological missions. These include communications satellites like Starlink; space stations such as the ISS; scientific satellites like the Hubble; Earth observation satellites from companies like Planet Labs, Umbra, and HawkEye 360; GPS; miniature CubeSats for education and research; and military/defense satellites.

Loading next visibility...
Identifier
66959, 2025-288A
Orbit
LEO
Country
Flag of USUS
Related business
Manufacturer
SpaceX/Seattle
Mission
Operational Commercial Communications
Bus & Motor
STARLINK V2MO, Unknown motor
Mass
575 kg wet, ~530 kg dry
Launch date (UTC)
2025-12-08 (7 months ago)
Launch vehicle
FALCON 9
Launch site
Air Force Eastern Test Range (AFETR)
Object type
Payload
Rocket body
Debris
Shape & HBR
Box + 2 Pan, 17.7 m
Radar Cross Section
36.964 m², Large (>1 m²)

Expand to show TLE details & history
Last TLE update: 9 hours ago

TLE from 9 hours ago
0 STARLINK-35887
1 66959U 25288A   26177.59045878  .00012987  00000-0  48048-3 0  9993
2 66959  43.0027 128.3365 0001996 275.0015  85.0609 15.27589587 31948
Epoch: 2026-06-26T14:10Z
TLE epoch observation values (Epoch: 2026-06-26T14:10:15.638Z)
Latitude
-0.00001°
Longitude
1.05455°
Altitude
482.678 km
Speed
7.626 km/s
True Right ascension
08h 33m 20s
True Declination
0° 00' 00"
Sunlit
Object was in daylight at epoch
Visualization orbit readout
Latitude
Unknown
Longitude
Unknown
Altitude
Unknown
Speed
Unknown
Apparent Right ascension
Unknown
Apparent Declination
Unknown
Sunlit
N/A
Visualization observer readout
Local Sidereal Time
10:39:39
Azimuth
Unknown
Elevation
Unknown
Doppler factor
Unknown
Orbital elements
Apogee altitude
486.335 km
Perigee altitude
483.595 km
Semi-major axis
6,863.102 km
Eccentricity
0.0002
Inclination
43.0027°
RAAN
128.3365°
Arg. of periapsis
275.0015°
True anomaly
85.08369°
Mean anomaly
85.0609°
Eccentric anomaly
85.07229°
Mean motion
3.81735 °/min
Orbital period
94.31 mins
BSTAR
0.00048048
Loading maneuver chart data...
Computing Atmospheric mass density...
Loading historical data...
Loading historical data...
Loading historical data...
Loading historical data...
Loading historical data...
Loading historical data...
Loading historical data...

Documentation

Showing up to 5 results
|